SCP
0 0 1 1 1 1 1 1 1 1 1 2 2 2 2 1 1 1 1 1 1 1 1 1 1 1 1 1 1 1 1 1 1 1 1 1 1 0 0 0 0 0 0
0 0 1 1 1 1 1 1 1 1 1 1 2 2 1 1 1 1 1 1 1 1 0 1 1 1 1 1 1 0 0 0 1 1 1 0 0 0 0 0 0 0 0
0 0 1 1 1 1 1 1 1 1 1 1 1 1 1 1 1 1 1 0 0 0 0 0 1 1 1 0 0 0 0 0 0 0 0 0 0 0 0 0 0 0 0
0 0 0 1 1 1 1 1 1 1 1 1 1 1 1 1 1 1 0 0 0 0 0 0 0 0 0 0 0 0 0 0 0 0 0 0 0 0 0 0 0 0 0
0 0 0 1 1 1 1 1 1 1 1 1 1 1 1 1 1 1 0 0 0 0 0 0 0 0 0 0 0 0 0 0 0 0 0 0 0 0 0 0 0 0 0
0 0 0 1 1 1 1 1 1 1 1 1 1 1 1 1 1 0 0 0 0 0 0 0 0 0 0 0 0 0 0 0 0 0 0 0 0 0 0 0 0 0 0
0 0 0 1 1 1 1 1 1 1 1 1 1 1 1 1 1 0 0 0 0 0 0 0 0 0 0 0 0 0 0 0 0 0 0 0 0 0 0 0 0 0 0
0 0 0 1 1 1 0 0 1 1 1 0 1 1 1 1 1 0 0 0 0 0 0 0 0 0 0 0 0 0 0 0 0 0 0 0 0 0 0 0 0 0 0
0 0 0 0 0 0 0 0 0 0 0 0 1 1 1 1 0 0 0 0 0 0 0 0 0 0 0 0 0 0 0 0 0 0 0 0 0 0 0 0 0 0 0
1 0 0 0 0 0 0 0 1 1 1 0 0 1 1 1 0 0 0 0 0 0 0 0 0 0 0 0 0 0 0 0 0 0 0 0 0 1 0 0 0 0 0
1 1 0 0 0 0 0 0 1 1 1 1 0 0 0 0 0 1 1 1 1 0 0 0 0 0 0 0 0 0 0 0 0 0 0 0 1 1 1 1 0 0 0
1 1 1 1 1 0 0 0 0 1 1 1 1 0 0 0 1 1 1 1 1 0 0 0 0 0 0 0 0 0 0 0 0 0 0 0 1 1 1 1 1 1 0
1 1 1 1 1 1 0 0 0 1 1 1 1 1 1 1 1 1 1 1 1 0 0 0 0 0 0 0 0 0 0 0 0 0 0 0 1 1 1 1 1 1 1
1 1 1 1 1 1 0 0 0 0 1 1 1 1 1 1 1 0 1 1 1 1 1 1 0 0 0 0 0 0 0 0 0 0 0 0 1 1 1 1 1 1 1
1 1 2 2 2 1 1 0 0 0 0 1 1 1 1 1 0 0 0 0 0 1 1 1 0 0 0 0 0 0 0 0 0 0 0 1 1 1 1 1 1 1 1
2 2 2 2 1 1 1 1 1 0 0 0 1 1 1 1 1 0 0 0 0 1 1 0 0 0 0 0 0 0 0 0 0 0 0 1 1 1 1 1 1 1 1
2 2 2 1 1 1 1 1 1 1 1 1 1 1 1 1 1 1 0 0 0 1 1 0 0 0 0 0 0 0 0 0 0 0 0 0 1 1 1 1 1 2 2
2 2 2 2 1 1 1 1 1 1 1 1 1 1 1 1 1 1 1 0 0 0 1 0 0 0 0 0 0 0 0 0 0 0 0 0 0 1 1 1 1 2 2
2 2 2 2 2 1 1 1 1 1 1 1 1 1 1 1 1 1 1 0 0 1 1 1 0 0 0 0 0 0 0 0 0 0 0 0 0 0 1 1 1 1 2
1 2 2 2 2 2 1 1 1 1 1 1 1 1 1 1 1 1 1 1 1 1 1 1 1 0 0 0 0 0 0 0 0 0 0 0 0 0 0 1 1 1 1
1 2 2 2 2 2 1 1 1 1 1 1 1 1 1 1 1 1 1 1 1 1 1 1 1 1 0 0 0 0 0 0 0 0 0 0 0 0 1 1 1 1 1
2 2 2 2 2 2 2 2 2 1 1 1 1 1 1 1 1 1 1 1 1 1 1 1 1 1 0 0 0 0 0 0 0 0 0 0 0 1 1 1 1 1 1
2 2 2 2 2 2 2 2 2 2 2 1 1 1 1 1 1 1 1 1 1 1 1 1 1 1 1 0 0 0 0 0 0 0 0 0 0 1 1 1 1 1 1
2 2 2 2 2 2 2 2 2 2 2 1 1 1 1 1 1 1 1 1 1 1 1 1 1 1 1 0 0 0 0 0 0 0 0 0 1 1 1 1 1 1 1
3 3 3 3 3 3 3 3 2 2 2 1 1 1 1 1 1 1 1 1 1 1 1 1 1 1 1 0 0 0 0 0 0 0 0 0 0 0 0 0 0 1 1
3 3 3 3 3 4 3 3 2 2 2 1 1 1 1 1 1 1 1 1 1 1 1 1 1 1 1 1 0 0 0 0 0 0 0 0 0 0 0 0 0 0 0
Wind_Speed
2 3 10 13 14 14 14 15 15 16 16 16 17 17 17 17 17 16 16 15 15 14 14 13 13 13 13 13 13 13 14 14 14 15 15 15 14 14 14 14 13 9 14
6 6 11 13 14 14 14 14 14 15 15 15 16 16 16 16 15 15 14 14 14 13 13 13 12 12 13 13 13 13 13 13 13 13 14 13 13 13 13 13 12 8 13
9 7 10 13 14 14 13 14 14 14 15 15 15 15 14 14 14 14 13 13 13 12 12 12 12 12 12 12 12 12 12 11 11 12 11 6 8 12 12 13 13 12 12
10 7 9 13 13 13 13 13 13 13 13 14 14 13 13 13 13 13 12 12 11 12 11 11 11 10 11 11 11 10 10 9 9 10 5 4 5 11 12 12 12 12 11
8 7 9 14 13 13 12 13 13 13 13 13 12 12 12 12 12 12 12 11 11 11 10 10 10 9 9 9 9 9 8 7 7 6 3 3 4 10 12 12 11 11 11
8 7 9 15 14 13 12 12 13 12 12 12 12 11 11 11 11 11 10 10 10 10 9 9 9 9 9 8 8 7 6 5 5 3 3 4 4 10 12 11 11 11 10
9 6 8 14 14 13 13 12 12 12 11 11 11 11 10 10 10 10 9 9 9 9 8 8 8 8 8 7 6 5 4 5 3 3 4 4 5 10 11 11 10 10 10
11 8 8 14 14 13 13 12 12 11 11 11 11 10 10 9 9 9 9 9 9 8 8 8 7 7 6 5 5 3 3 4 4 4 4 5 8 10 11 11 11 10 10
10 8 6 7 9 12 12 12 12 11 11 10 10 10 10 9 9 9 8 8 8 8 8 8 7 6 5 4 3 3 3 4 3 3 5 4 9 11 11 11 11 11 11
9 8 6 6 5 5 6 11 11 11 10 10 10 9 9 9 9 9 8 8 8 8 8 8 7 6 5 4 4 3 2 3 3 3 3 5 11 12 12 12 11 11 10
9 7 7 6 5 5 5 8 9 10 9 9 7 9 7 3 3 4 6 8 8 8 8 7 7 6 5 4 5 4 2 1 2 2 3 8 12 13 12 12 12 11 11
10 9 8 8 7 6 6 5 3 4 4 4 3 3 2 2 2 4 6 8 8 8 8 7 7 5 3 1 3 3 1 2 2 2 4 10 12 13 13 13 12 12 12
12 11 9 9 8 7 4 4 2 2 2 3 4 4 3 2 2 2 2 3 4 5 3 4 3 2 2 2 2 2 2 2 2 3 5 11 12 14 14 13 13 13 13
10 10 9 9 8 7 6 4 4 3 3 3 4 4 3 2 2 2 2 2 2 1 2 2 2 3 3 3 3 3 3 3 3 3 5 13 13 14 14 14 13 13 13
9 9 9 9 8 7 6 5 5 4 4 4 3 4 4 3 3 2 2 2 2 2 3 3 3 3 3 3 3 4 4 4 4 4 4 13 14 14 14 14 14 14 14
9 9 8 8 8 7 5 4 4 4 4 4 3 4 5 4 3 3 2 2 2 3 3 3 4 3 3 3 3 3 4 4 4 5 4 8 14 14 14 14 14 14 14
11 9 9 9 8 7 6 5 4 4 4 4 4 4 5 4 4 4 3 2 3 3 3 2 2 2 2 2 3 4 3 4 5 5 5 4 6 12 14 14 14 14 15
11 10 9 9 8 7 6 5 3 4 4 4 4 4 5 5 5 4 3 3 3 2 2 2 2 2 2 2 2 3 3 3 4 5 5 5 5 5 9 14 14 14 15
12 11 9 8 8 7 6 4 3 3 4 4 4 4 5 5 5 4 3 3 3 2 2 2 2 2 2 3 3 3 3 3 3 4 5 6 6 6 5 9 14 15 16
12 11 9 9 8 6 4 3 2 2 2 3 4 5 6 5 5 4 3 3 3 2 2 2 2 2 2 2 3 3 3 3 3 4 5 5 5 7 7 7 7 10 16
10 10 10 9 8 6 4 3 3 3 2 2 4 6 6 6 6 5 4 3 3 3 3 3 2 2 2 1 0 2 3 3 3 4 4 3 5 6 5 6 5 5 6
12 11 10 10 9 8 5 4 3 3 3 3 3 4 6 6 6 6 5 4 4 3 3 3 2 1 1 1 2 0 3 4 3 2 2 3 3 2 3 5 5 6 5
13 13 12 11 9 8 7 3 2 1 0 1 2 3 4 6 6 5 5 4 4 4 3 3 3 3 2 2 2 3 1 2 3 3 2 1 1 2 2 3 4 5 6
14 13 11 11 9 8 7 6 6 5 4 4 3 3 3 4 5 5 5 5 4 4 4 4 4 3 3 2 1 2 2 3 1 3 3 2 1 2 3 3 3 3 4
13 12 11 10 9 8 8 8 6 5 4 3 2 3 3 3 4 5 5 5 4 4 4 4 3 3 3 3 2 1 1 1 2 2 3 3 2 2 3 3 2 2 2
11 10 10 10 9 9 9 8 8 7 5 4 4 4 3 2 3 4 4 4 5 4 4 4 4 4 3 3 3 2 2 2 2 2 3 3 3 3 2 1 1 1 1
Wind_Direction
142 142 121 117 116 113 110 107 105 105 104 104 104 105 107 109 111 113 114 114 115 114 114 114 113 113 114 116 116 117 117 116 115 116 117 117 117 116 115 115 112 110 113
149 138 121 119 119 115 112 110 109 108 108 110 110 110 111 113 114 115 116 116 116 116 116 117 117 117 119 119 120 121 120 119 119 118 118 118 119 120 121 121 119 121 121
136 131 122 119 119 118 116 113 112 110 110 113 114 114 115 116 118 119 119 119 119 120 121 120 121 123 124 124 124 124 123 122 122 119 115 108 116 120 123 125 124 123 122
136 133 128 125 123 120 119 118 117 115 115 116 117 117 118 118 121 123 122 122 122 123 124 124 126 127 129 129 128 128 128 128 127 124 115 119 124 126 126 127 127 128 126
133 134 136 131 127 126 124 121 120 119 118 119 121 123 123 123 125 127 126 125 126 128 129 130 132 134 134 134 133 132 132 132 135 128 124 129 129 136 134 133 133 133 131
136 138 141 135 132 131 129 126 125 125 124 124 126 128 129 130 132 132 132 131 132 132 134 135 137 140 139 139 136 135 134 137 133 126 129 140 143 145 141 140 140 139 136
140 142 141 138 135 134 132 130 129 129 129 131 132 132 133 134 137 138 137 138 139 140 141 144 144 145 144 143 143 143 139 144 140 144 145 146 154 153 148 146 144 144 144
144 145 143 144 141 139 138 136 135 135 136 136 135 136 138 140 143 145 146 146 147 147 150 152 152 152 151 152 157 159 153 152 137 138 145 155 159 157 154 152 151 150 150
145 146 147 149 147 147 146 143 142 142 143 144 143 144 146 147 149 152 155 156 157 158 160 160 163 164 165 173 181 180 168 156 131 144 159 159 167 165 161 159 160 162 161
149 152 153 150 149 150 150 151 149 149 151 153 152 152 153 155 159 161 162 168 169 169 169 170 171 177 186 194 208 223 212 159 147 167 162 174 175 173 169 168 170 171 170
157 161 163 160 160 159 159 161 156 156 159 160 161 164 160 154 158 166 174 174 178 179 180 182 184 189 198 210 227 242 238 168 158 173 175 185 181 180 177 175 176 177 177
169 174 173 169 169 167 169 156 159 161 161 164 168 170 162 172 185 185 184 185 187 188 189 194 196 201 212 225 248 252 214 186 178 183 189 191 188 187 184 183 184 186 186
171 174 176 174 174 173 167 161 166 166 168 180 182 179 177 185 188 182 181 196 194 194 195 202 205 210 218 228 233 227 205 202 200 197 193 198 196 194 191 190 191 193 192
166 170 170 171 171 173 165 167 172 174 182 190 191 182 172 172 172 169 177 193 189 184 187 200 210 224 232 237 229 228 217 204 205 201 199 202 201 199 197 196 198 200 200
161 163 165 168 168 168 164 174 176 184 187 190 186 182 171 167 172 171 181 191 197 193 195 204 215 221 224 236 237 227 220 214 212 200 203 204 202 203 203 202 202 205 206
161 162 163 161 162 160 163 171 175 183 183 179 187 185 175 172 175 171 179 191 203 199 196 199 211 218 224 227 243 237 224 220 215 204 206 208 207 207 208 208 208 209 212
162 160 161 161 160 160 166 175 173 180 178 181 190 189 183 180 179 175 176 194 208 201 196 197 217 223 229 234 249 250 237 224 213 209 203 206 213 216 214 214 214 215 218
160 161 168 167 165 168 171 177 175 178 178 184 186 190 190 187 180 171 174 197 206 197 189 193 201 214 239 243 252 260 249 237 223 214 205 206 208 217 221 221 220 220 221
165 165 170 166 171 177 177 180 181 178 182 184 182 188 194 193 186 174 183 198 193 192 202 212 199 198 228 248 250 253 253 247 238 224 212 212 208 211 217 227 228 226 226
168 168 169 169 177 177 172 165 173 184 191 188 189 196 197 198 194 180 188 198 187 185 206 211 213 214 223 238 265 278 266 249 236 228 224 221 212 213 216 226 229 233 232
169 170 171 171 178 171 168 169 176 200 206 201 205 203 198 197 195 187 193 190 188 194 211 210 200 215 238 216 1 318 308 280 251 238 232 229 225 220 214 218 223 228 235
175 176 175 176 178 180 181 177 179 184 202 205 208 204 199 194 193 194 189 191 190 192 213 212 197 193 242 180 152 59 327 332 318 270 245 230 238 229 226 225 222 226 229
180 181 182 183 182 184 179 162 160 140 175 197 215 212 211 199 196 200 194 191 193 187 202 209 196 190 219 238 182 161 173 255 301 312 297 255 236 232 240 236 227 228 224
187 184 181 181 182 182 175 170 172 181 195 207 202 206 211 202 198 203 198 192 192 190 198 210 197 190 184 218 242 212 192 183 205 309 320 316 272 242 248 253 242 230 227
185 182 181 179 183 182 180 181 183 193 201 201 193 200 207 207 204 204 198 195 195 196 199 202 190 190 186 191 197 206 221 214 196 202 282 308 313 272 251 242 235 230 207
178 177 177 180 186 184 183 185 188 193 193 188 199 199 201 205 216 215 201 198 198 196 196 195 191 192 198 194 191 189 188 196 210 198 233 269 284 285 282 255 217 214 179